Вернуться в каталог

STARLINK-34607

АктивенСвязьVLEO
NORAD 64742·PAYLOAD·🇺🇸 United States

Запущен Jul 2, 2025 с Cape Canaveral Space Force Station

Loading…

Ближайшие Пролёты (ближайшие 24 часа)

TLE

СвежийSource: CelesTrak SupGP

Эпоха: Sep 14, 2026, 22:48 UTC

1 64742C 25144U   26257.95048611 -.00002131  00000+0 -62982-4 0  2571
2 64742  53.1597  21.3443 0001233  83.2381  38.1267 15.34379853    12

Отслеживайте STARLINK-34607 в реальном времени с AllMySat

Download on the App Store